Location: Zagreb
(45.8000°N, 16.0000°E)
Time: 00:34:03
(UTC+01:00)

NUDT-PHONESAT - Pass Details

Date: 07 November 2020
Orbit: 481 x 500 km, 97.4° (Epoch: 30 November)

Event Time Altitude Azimuth Distance (km) Brightness Sun altitude
Rises 18:45:54 0° 207° (SSW) 2,586 ? -23.2°
Reaches altitude 10° 18:48:40 10° 231° (SW) 1,708 ? -23.7°
Maximum altitude 18:50:55 15° 268° (W) 1,403 ? -24.1°
Drops below altitude 10° 18:53:10 10° 306° (NW) 1,714 ? -24.5°
Sets 18:55:58 0° 330° (NNW) 2,601 ? -25.0°
